Regional Weather Roundup
Issued by NWS

Home | Current Version | Previous Version | Text Only | Print | Product List | Glossary Off
Versions: 1 2 3 4 5 6 7 8 9 10 11 12 13 14 15 16 17 18 19 20 21 22 23 24 25 26 27 28 29 30 31 32 33 34 35 36 37 38 39 40 41 42 43 44 45 46 47 48 49 50

000
ASUS43 KDTX 291910
RWRMI
MICHIGAN HOURLY REGIONAL WEATHER ROUNDUP
NATIONAL WEATHER SERVICE DETROIT/PONTIAC MI
300 PM EDT SUN MAR 29 2015

NOTE: "FAIR" INDICATES FEW OR NO CLOUDS BELOW 12,000 FEET WITH NO
SIGNIFICANT WEATHER AND/OR OBSTRUCTION TO VISIBILITY.

MIZ047>049-052>055-059>063-066>070-074>076-081>083-292000-
SOUTHEAST LOWER MICHIGAN

CITY           SKY/WX    TMP DP  RH WIND       PRES   REMARKS
ADRIAN         PTSUNNY   42  20  41 SW24G35   30.01F
ALMA           CLOUDY    46  14  27 S18G32    29.85F
ANN ARBOR      PTSUNNY   42  17  36 S23G33    29.99F
BAD AXE        CLOUDY    41  16  36 S24G30    29.89F
CARO           CLOUDY    43  11  28 S16G30    29.88F
DETROIT CITY   CLOUDY    43  17  35 S25G33    30.02F
DETROIT        CLOUDY    46  20  35 S18G32    30.03F
FLINT          PTSUNNY   45  15  30 S24G35    29.92F
GROSSE ILE     CLOUDY    39  27  60 S17       30.03F WCI  30
HILLSDALE      CLOUDY    42  17  36 S17G32    29.95F
HOWELL         PTSUNNY   42  15  34 S23G32    29.92F

CITY           SKY/WX    TMP DP  RH WIND       PRES   REMARKS
JACKSON        CLOUDY    43  17  35 S25G36    29.93F
LAMBERTVILLE   PTSUNNY   45  18  33 S21G30    30.05F
LANSING        CLOUDY    44  14  29 S26G36    29.89F
LAPEER         FAIR      42  11  27 SW23G33   29.94F
MASON          CLOUDY    42  16  35 S13G24    29.91F
MONROE         CLOUDY    45  19  36 S18G30    30.02F
MT. CLEMENS    PTSUNNY   40  21  45 S26G35    29.98F WCI  30
PONTIAC        CLOUDY    42  12  29 S24G31    29.96F
PORT HOPE        N/A     41  15  35 S14G29    29.87F
PORT HURON     CLOUDY    37  19  48 S22G32    30.01F WCI  27
TRI CITIES     CLOUDY    45  12  26 SW21G35   29.86F
TROY           CLOUDY    44  15  31 S20G26    30.02F
SAGINAW HB     CLOUDY    43  14  31 S26G33    29.86F
$$
MIZ043>046-050>051-056>058-064>065-071>073-077>080-292000-
SOUTHWEST LOWER MICHIGAN

CITY           SKY/WX    TMP DP  RH WIND       PRES   REMARKS
BATTLE CREEK   LGT RAIN  43  13  29 S24G33    29.88F
BENTON HARBOR  CLOUDY    36  24  62 S20G31    29.91F WCI  25
BIG RAPIDS     LGT SNOW  36  23  58 SW18G33   29.78F WCI  26
COLDWATER      CLOUDY    43  12  29 S12G26    29.93F
FREMONT        LGT SNOW  33  28  81 S14G24    29.80F WCI  23
HOLLAND        LGT RAIN  38  24  57 S24G37    29.85F WCI  27
GRAND RAPIDS   CLOUDY    42  13  30 S22G30    29.85F
IONIA          CLOUDY    43  13  29 SW21G36   29.85F
KALAMAZOO      LGT RAIN  41  18  39 S18G33    29.89F
LUDINGTON      LGT SNOW  33  28  80 S17G32    29.78S WCI  22
MARSHALL       CLOUDY    43  13  29 S23G35    29.91F
MOUNT PLEASANT CLOUDY    42  11  27 SW20G30   29.82F
MUSKEGON       FLURRIES  35  25  66 S23G37    29.84F WCI  23
SOUTH HAVEN    LGT RAIN  38  23  54 S20G28    29.89F WCI  28
$$
MIZ016>042-292000-
NORTHERN LOWER MICHIGAN

CITY           SKY/WX    TMP DP  RH WIND       PRES   REMARKS
ALPENA         CLOUDY    43  11  27 S20G29    29.75F
BEAVER ISLAND  LGT SNOW  32  31  95 SW16G26   29.66F WCI  22
BELLAIRE       LGT SNOW  37  26  65 S16G36    29.69F WCI  27
CADILLAC       LGT SNOW  33  26  78 S16G25    29.72F WCI  22
CHARLEVOIX     LGT SNOW  34  29  80 SW16G28   29.71F WCI  24
FRANKFORT      LGT SNOW  34  28  76 S23G32    29.72R WCI  22
GAYLORD        CLOUDY    37  14  38 S23G35    29.68F WCI  26
GRAYLING       CLOUDY    39  11  31 S20G29    29.73F WCI  29
HARBOR SPRINGS LGT SNOW  37  23  57 SW16G26   29.67F WCI  27
HOUGHTON LAKE  CLOUDY    39   9  29 S18G30    29.77F WCI  30
MANISTEE       CLOUDY    32  27  80 S20G30    29.76S WCI  20
OSCODA         CLOUDY    40  16  38 S23G32    29.81F WCI  29
PELLSTON       LGT SNOW  36  24  62 SW16G28   29.68  WCI  26
ROGERS CITY    CLOUDY    42  16  34 S18G26    29.72F
TRAVERSE CITY  LGT SNOW  33  30  88 S12G23    29.69F VSB 3/4 WCI  24
$$
MIZ007>008-015-292000-
EASTERN UPPER MICHIGAN

CITY           SKY/WX    TMP DP  RH WIND       PRES   REMARKS
KINROSS        CLOUDY    37  18  44 S13G30    29.66F WCI  29
MACKINAC ISLAN CLOUDY    39  20  47 S21G31    29.68F WCI  29
NEWBERRY       SNOW      31  30  97 S20G37    29.60F VSB 1/2 WCI  18
S. S. MARIE    CLOUDY    38  16  40 S10G18    29.67F WCI  31
MUNISING         N/A     34  29  82 S18G30    29.53F WCI  23
$$
MIZ004>006-011>014-085-292000-
CENTRAL UPPER MICHIGAN

CITY           SKY/WX    TMP DP  RH WIND       PRES   REMARKS
MANISTIQUE     LGT SNOW  32  31  96 S22G36    29.62F WCI  19
ESCANABA       CLOUDY    32  28  86 S18G25    29.57F WCI  20
MENOMINEE      CLOUDY    34  30  86 SW21G32   29.58F WCI  22
SAWYER-GWINN   CLOUDY    30  28  93 SW17G26   29.50F VSB 1   WCI  18
$$
MIZ001>003-009>011-084-292000-
WESTERN UPPER MICHIGAN

CITY           SKY/WX    TMP DP  RH WIND       PRES   REMARKS
IRON MOUNTAIN  FRZ RAIN  32  29  88 S13       29.50F FOG     WCI  22
HOUGHTON       LGT SNOW  33  30  88 SW8       29.41F FOG     WCI  26
COPPER HARBOR    N/A     34  30  85 W10G22    29.42F WCI  26
IRONWOOD       CLOUDY    34  34 100 SW12      29.44F WCI  25
$$

ABBREVIATIONS USED IN REMARKS
   TC - TEMPERATURE IN CELSIUS
  WCI - WIND CHILL INDEX
   HX - HEAT INDEX
  VSB - VISIBILITY




USA.gov is the U.S. government's official web portal to all federal, state and local government web resources and services.